BEIJING 1

Last updated on Mon Jul 07 2025 00:02:35 GMT+0000 (Coordinated Universal Time)

1 28890U 05043A 25187.57751529 .00000224 00000+0 53007-4 0 9999 2 28890 98.2459 314.9338 0013398 284.5900 75.3815 14.63177425 50104
UTC large
Height (km)
Speed (km/s)
/
Latitude / Longitude
Inclination (degrees)
Orbital Period (minutes)
Azimuth
Elevation
Range (km)
Doppler Factor

Next 0 passes for location: London (51.5072 / 0.1276)

Sorry there are no passes over London.